OpenBCM V1.13 (Linux)

Packet Radio Mailbox

DB0FHN

[JN59NK Nuernberg]

 Login: GUEST





  
LU5HK  > KEPLER   11.08.04 18:47l 188 Lines 9029 Bytes #999 (0) @ AMSAT
BID : 120056LU5HK
Read: GUEST
Subj: Kepler Nasa  05/08/2004
Path: DB0FHN<DB0MRW<DB0RGB<DB0FSG<DB0PV<DB0AAB<F6KFT<F6KMO<ON0AR<ON0AR<
      7M3TJZ<ON4HU<ON0BEL<KP4IG<LU4HB<LU4HB<LU3HE<LU2HT
Sent: 040809/2338Z @:LU2HT.5850.RT.ARG.SOAM #:38936 [RIO TERCERO] FBB7.00i
From: LU5HK@LU2HT.5850.RT.ARG.SOAM
To  : KEPLER@LUNET


<!DOCTYPE HTML PUBLIC "-//W3C//DTD HTML 4.0 Transitional//EN">
<!-- saved from url=(0048)http://amsat.org/amsat/ftp/keps/current/nasa.all -->
<HTML><HEAD>
<META http-equiv=Content-Type content="text/html; charset=iso-8859-1">
<META content="MSHTML 6.00.2600.0" name=GENERATOR></HEAD>
<BODY><PRE>SB KEPS @ AMSAT  $ORB04218.N
2Line Orbital Elements 04218.AMSAT

HR AMSAT ORBITAL ELEMENTS FOR AMATEUR SATELLITES IN NASA FORMAT
FROM WA5QGD FORT WORTH,TX August 5, 2004
SEND SUBSCRIBE/UNSUBSCRIBE TO majordomo@amsat.org ONLY
BID: ORB04218.N

DECODE 2-LINE ELSETS WITH THE FOLLOWING KEY:
1 AAAAAU 00  0  0 BBBBB.BBBBBBBB  .CCCCCCCC  00000-0  00000-0 0  DDDZ
2 AAAAA EEE.EEEE FFF.FFFF GGGGGGG HHH.HHHH III.IIII JJ.JJJJJJJJKKKKKZ
KEY: A-CATALOGNUM B-EPOCHTIME C-DECAY D-ELSETNUM E-INCLINATION F-RAAN
G-ECCENTRICITY H-ARGPERIGEE I-MNANOM J-MNMOTION K-ORBITNUM Z-CHECKSUM

TO ALL RADIO AMATEURS BT

AO-07
1 07530U 74089B   04218.75695346 -.00000029  00000-0  10000-3 0  3049
2 07530 101.6780 264.7116 0012199 125.3896 234.8317 12.53568946360122
AO-10
1 14129U 83058B   04217.70007978 -.00000136  00000-0  10000-3 0 00876
2 14129 026.5301 078.3904 6019887 112.9190 319.2548 02.05868939159017
UO-11
1 14781U 84021B   04217.74824766  .00000401  00000-0  61721-4 0  5435
2 14781  98.1762 203.4063 0008103 300.2939  59.7461 14.78963577 95027
RS-10/11
1 18129U 87054A   04218.20273496  .00000080  00000-0  70278-4 0  4792
2 18129  82.9248 111.8790 0011373 177.6037 182.5172 13.72742288857728
FO-20
1 20480U 90013C   04217.71354766 -.00000048  00000-0 -28711-4 0 06938
2 20480 099.0427 085.9840 0539634 236.9201 117.8985 12.83341027678904
RS-12/13
1 21089U 91007A   04217.86375088  .00000020  00000-0  51411-5 0 07320
2 21089 082.9243 145.6511 0027621 239.7883 120.0536 13.74439235677043
RS-15
1 23439U 94085A   04217.59777171 -.00000018  00000-0  70937-3 0 08162
2 23439 064.8161 259.5423 0153879 012.6927 347.7804 11.27549562395696
FO-29
1 24278U 96046B   04217.83201233  .00000011  00000-0  51089-4 0  7801
2 24278  98.5874 303.4277 0349929 275.7083  80.4263 13.52900752393417
SO-33
1 25509U 98061B   04217.83145223  .00000082  00000-0  24501-5 0  1660
2 25509  31.4340  20.5652 0356788 281.1802  74.8961 14.27855508301573
AO-40
1 26609U 00072B   04216.42809529 -.00000314  00000-0  10000-3 0  4206
2 26609   9.9932 348.6673 7974886 307.5665   4.2789  1.25585380 17268
UO-14
1 20437U 90005B   04218.02447029 -.00000037  00000-0  13921-5 0  5597
2 20437  98.2077 239.2348 0011772  57.0565 303.1761 14.31364889758804
AO-16
1 20439U 90005D   04218.71565530  .00000025  00000-0  24741-4 0  2474
2 20439  98.2440 254.3475 0012050  61.6971 298.5424 14.31622346758955
WO-18
1 20441U 90005F   04218.80669411 -.00000076  00000-0 -13038-4 0  4321
2 20441  98.2556 258.4194 0012523  64.8765 295.3807 14.31697913759021
LO-19
1 20442U 90005G   04218.72277183  .00000045  00000-0  32275-4 0  2050
2 20442  98.2715 262.3371 0012993  61.5573 298.6919 14.31868938759074
UO-22
1 21575U 91050B   04218.69070319  .00000034  00000-0  24136-4 0  1703
2 21575  98.1959 190.7639 0006782 328.5911  31.4859 14.39403572685119
KO-23
1 22077U 92052B   04217.96303014 -.00000037  00000-0  10000-3 0 03704
2 22077 066.0841 088.7012 0006818 330.8236 029.2400 12.86424672562911
AO-27
1 22825U 93061C   04218.22234574  .00000013  00000-0  21214-4 0  9091
2 22825  98.2415 224.6607 0009584 117.3568 242.8605 14.29078447566093
IO-26
1 22826U 93061D   04218.58666389  .00000056  00000-0  38091-4 0  5964
2 22826  98.2428 226.2845 0009815 112.3969 247.8253 14.29314951566207
KO-25
1 22828U 93061F   04218.65377266 -.00000081  00000-0 -15925-4 0  8444
2 22828  98.2328 226.5865 0011004  92.4783 267.7627 14.29635198534433
TO-31
1 25396U 98043C   04217.93114184 -.00000043  00000-0  00000-0 0 00948
2 25396 098.5724 287.9963 0003267 040.5591 319.5832 14.23628517315412
GO-32
1 25397U 98043D   04218.79915503  .00000143  00000-0  82441-4 0  5294
2 25397  98.5643 286.9319 0001842  68.1259 292.0115 14.23048468315477
UO-36
1 25693U 99021A   04218.85504200  .00000118  00000-0  35687-4 0  3240
2 25693  64.5579 172.0268 0048547 252.5132 107.0653 14.78367717285207
SO-41
1 26545U 00057A   04218.00781602 -.00000068  00000-0  98168-5 0  8422
2 26545  64.5568 191.2069 0013321   9.2236 350.9086 14.79819683208139
MO-46
1 26548U 00057D   04218.16579883  .00000140  00000-0  35467-4 0  9421
2 26548  64.5562 177.2731 0013876 343.2542  16.8092 14.82359913208439
SO-42
1 26549U 00057E   04218.23300658 -.00000052  00000-0  12129-4 0  9379
2 26549  64.5539 197.4308 0013937  31.9548 328.2398 14.78714725208039
NO-44
1 26931U 01043C   04218.04251243 -.00000065  00000-0  68165-5 0  8245
2 26931  67.0544 321.9880 0006110 273.4932  86.5471 14.29312379148586
AO-49
1 27605U 02058A   04218.75831490  .00000037  00000-0  27563-4 0  5035
2 27605  64.5595  14.2659 0080004 301.8754  57.4550 14.71906817 87424
SO-50
1 27607U 02058C   04217.94219573  .00000068  00000-0  32963-4 0  4874
2 27607  64.5590  20.6025 0081002 300.9230  58.3933 14.70688687 87221
AO-51
1 28375U 04025K   04218.13425937  .00000038  00000-0  24300-4 0   349
2 28375  98.2572 286.4665 0085234 105.0105 256.0534 14.40380000  5113
NOAA-10
1 16969U 86073A   04218.50338971 -.00000051  00000-0 -24682-5 0  3423
2 16969  98.7550 217.6187 0012106 336.6720  23.3912 14.27206032930061
NOAA-11
1 19531U 88089A   04218.30107180  .00000025  00000-0  35760-4 0  1991
2 19531  98.8660 301.8831 0012522 124.3539 235.8852 14.14723251818269
NOAA-12
1 21263U 91032A   04218.23734905 -.00000001  00000-0  18032-4 0  6826
2 21263  98.6713 205.5290 0011672 268.4380  91.5463 14.25397533687237
MET-3/5
1 21655U 91056A   04217.91367244  .00000051  00000-0  10000-3 0 07325
2 21655 082.5549 022.0865 0012502 309.0195 050.9812 13.16994822623689
MET-2/21
1 22782U 93055A   04217.88317117  .00000062  00000-0  43100-4 0  9702
2 22782  82.5519 151.8995 0020967 292.4578  67.4349 13.83566638551836
OKEAN-4
1 23317U 94066A   04217.96480624  .00000273  00000-0  31331-4 0 04772
2 23317 082.5389 192.1544 0024373 096.7151 263.6835 14.81842474529076
NOAA-14
1 23455U 94089A   04218.30794187  .00000092  00000-0  73438-4 0  2299
2 23455  99.1355 254.7308 0009447 165.1419 195.0031 14.13475664494875
SICH-1
1 23657U 95046A   04217.84329433  .00000285  00000-0  33587-4 0  2254
2 23657  82.5315 333.0837 0025948  82.3123 278.1039 14.80884900481132
NOAA-15
1 25338U 98030A   04218.26629181  .00000060  00000-0  44449-4 0  6858
2 25338  98.5183 230.1424 0010283 195.6724 164.4107 14.24441667323775
RESURS
1 25394U 98043A   04217.96031875  .00000022  00000-0  28360-4 0 08716
2 25394 098.5782 289.5160 0001916 031.8466 328.2828 14.24016821315449
FENGYUN1
1 25730U 99025A   04218.61347477 -.00000274  00000-0 -12720-3 0  2001
2 25730  98.6032 227.0836 0013635 282.5893  77.3627 14.11774567269989
OKEAN-0
1 25860U 99039A   04217.92342852  .00000043  00000-0  14075-4 0 02317
2 25860 097.7941 251.1274 0001880 110.8969 249.2442 14.73095940271440
NOAA-16
1 26536U 00055A   04218.36469517  .00000083  00000-0  69886-4 0  9710
2 26536  98.9662 169.8147 0009832 236.0314 123.9924 14.12138105199488
NOAA-17
1 27453U 02032A   04218.29455097  .00000229  00000-0  11984-3 0  9959
2 27453  98.6981 290.0237 0010884 249.6005 110.4005 14.23555968109890
HUBBLE
1 20580U 90037B   04217.97658980  .00000441  00000-0  22068-4 0 01274
2 20580 028.4657 168.4173 0003934 163.6735 196.3984 14.99242430582732
UARS
1 21701U 91063B   04218.75012722 -.00000549  00000-0 -21085-4 0  2398
2 21701  56.9811  28.5145 0006986 104.6439 255.5314 15.03585484706049
PO-34
1 25520U 98064B   04218.51500483  .00000648  00000-0  23226-4 0  9832
2 25520  28.4623 261.8098 0005349  32.6637 327.4305 15.15656742318630
ISS
1 25544U 98067A   04218.79756944  .00016295  00000-0  13396-3 0  3820
2 25544  51.6324  72.5540 0006126  85.2536 299.0999 15.70573238326111
OO-38
1 26063U 00004C   04215.01310869 -.00000061  00000-0 -67915-6 0 01299
2 26063 100.2156 010.3283 0036555 233.0807 126.7010 14.35658958236505
NO-45
1 26932U 01043D   04218.03595866 -.00000203  00000-0 -47221-4 0  8218
2 26932  67.0595 321.6501 0004104 274.9593  85.1039 14.29434206148613
>/EX
</PRE></BODY></HTML>
       .---.          .----------- 
      /     \   __   /    ------ ÛÛ»  ÛÛ»  ÛÛ»  ÛÛÛÛÛÛÛ  ÛÛ»  ÛÛ» ÛÛ»  ÛÛ»
     / /     \ (..) /    -----   ÛÛº  ÛÛº  ÛÛº  ÛÛº      ÛÛº  ÛÛº ÛÛº ÛÛͼ
    //////    ' \/ '    ---      ÛÛº  ÛÛº  ÛÛº  ÛÛÛÛÛÛÛ» ÛÛÛÛÛÛÛº ÛÛÛÛͼ 
   //// / //  :    :  ---        ÛÛº  ÛÛº  ÛÛº       ÛÛº ÛÛº  ÛÛº ÛÛº ÛÛ
  // /   /    '    '--           ÛÛÛÛ»ÛÛÛÛÛÛÛº  ÛÛÛÛÛÛÛº ÛÛº  ÛÛº ÛÛº  ÛÛº
 //          //. .\\             ÈÍÍͼ ÈÍÍÍÍͼ   ÈÍÍÍÍͼ Èͼ  Èͼ Èͼ  Èͼ
/        ÍÍÍÍUUÍÍÍUUÍÍÍÍÍÍÍÍÍÍÍÍÍÍÍÍÍÍÍÍÍÍÍÍÍÍÍÍÍÍÍÍÍÍÍÍÍÍÍÍÍ WinPack-AGW V6.80 
            '//|||\\'Packet Mail : LU5HK@LU2HT.5850.RT.ARG.SOAM
                     Post Mail   : B.Roldan 1522   C.P. 5850 RIO II(CBA)
                     E-MAIL      : carlos5hk@arnet.com.ar
  ÍÍÍÍÍÍÍÍÍÍÍÍÍÍÍÍÍÍÍÍÍÍÍÍÍÍÍÍÍ  A R G E N T I N A  ÍÍÍÍÍÍÍÍÍÍÍÍÍÍÍÍÍÍÍÍÍ
  Message timed: 20:22 on 2004-Aug-09


Read previous mail | Read next mail


 11.06.2026 06:24:07lGo back Go up